Location: Dehesa de la Cepeda
(40.6574°N, 4.3013°W)
Time: 18:15:23
(UTC+00:00)

Cosmos 1408 - Pass Details

Date: 05 July 2020
Orbit: 470 x 493 km, 82.6° (Epoch: 06 August)

Event Time Altitude Azimuth Distance (km) Brightness Sun altitude
Exits shadow 23:03:13 48° 13° (NNE) 625 3.3 -24.1°
Drops below altitude 10° 23:05:54 10° 9° (N) 1,642 6.1 -24.3°
Sets 23:08:00 0° 9° (N) 2,523 7.2 -24.4°
